VK4TOM-13 Weather Reports


time (UTC)temp
C
wind
direction
speed
KPH
gust
KPH
rain 1hr
cm
rain 24hr
cm
rain mn
cm
humidity
%
barometer
mb
20260506012524 29 285 0.0 9.7 0.00 0.00 0.00 70 1015.4
20260506011523 28 149 1.6 8.0 0.00 0.00 0.00 70 1015.4
20260506005521 27 71 1.6 4.8 0.00 0.00 0.00 70 1015.7
20260506004520 28 66 3.2 8.0 0.00 0.00 0.00 70 1015.8
20260506003519 28 233 1.6 4.8 0.00 0.00 0.00 70 1016.1
20260505235515 26 84 1.6 11.3 0.00 0.00 0.00 70 1016.4
20260505234252 26 100 1.6 8.0 0.00 0.00 0.00 70 1016.4
20260505232251 26 268 1.6 4.8 0.00 0.00 0.00 70 1016.4
20260505231250 25 74 0.0 6.4 0.00 0.00 0.00 70 1016.5
20260505230418 25 136 8.0 8.0 0.00 0.00 0.00 70 1016.5
20260505225933 25 180 0.0 8.0 0.00 0.00 0.00 70 1016.5
20260505225632 25 77 8.0 8.0 0.00 0.00 0.00 70 1016.5
20260505224803 25 221 0.0 11.3 0.00 0.00 0.00 70 1016.6
20260505224401 25 55 8.0 8.0 0.00 0.00 0.00 70 1016.6
20260505223753 24 66 0.0 4.8 0.00 0.00 0.00 70 1016.6
20260505222752 23 177 1.6 6.4 0.00 0.00 0.00 70 1016.6
20260505221751 23 197 3.2 4.8 0.00 0.00 0.00 70 1016.6
20260505220750 23 101 1.6 3.2 0.00 0.00 0.00 70 1016.6
20260505215749 22 151 1.6 6.4 0.00 0.00 0.00 70 1016.6
20260505214748 22 180 0.0 3.2 0.00 0.00 0.00 70 1016.6
20260505213747 22 136 1.6 1.6 0.00 0.00 0.00 70 1016.5
20260505212746 22 90 1.6 3.2 0.00 0.00 0.00 70 1016.4
20260505211744 21 76 3.2 3.2 0.00 0.00 0.00 70 1016.3
20260505210743 21 105 0.0 3.2 0.00 0.00 0.00 70 1016.2
20260505205742 21 220 0.0 3.2 0.00 0.00 0.00 70 1016.0
20260505203740 21 90 0.0 1.6 0.00 0.00 0.00 70 1015.8
20260505202739 21 131 0.0 3.2 0.00 0.00 0.00 70 1015.8
20260505201738 21 95 3.2 3.2 0.00 0.00 0.00 70 1015.7
20260505200737 21 124 0.0 3.2 0.00 0.00 0.00 70 1015.6
20260505195736 21 86 0.0 4.8 0.00 0.00 0.00 70 1015.6
20260505194735 21 288 0.0 3.2 0.00 0.00 0.00 70 1015.5
20260505193734 21 92 0.0 1.6 0.00 0.00 0.00 70 1015.4
20260505192733 21 125 0.0 1.6 0.00 0.00 0.00 70 1015.3
20260505191732 21 125 0.0 0.0 0.00 0.00 0.00 70 1015.3
20260505190731 21 135 0.0 3.2 0.00 0.00 0.00 70 1015.3
20260505185730 21 333 0.0 3.2 0.00 0.00 0.00 70 1015.1
20260505184728 21 77 0.0 0.0 0.00 0.00 0.00 70 1015.2
20260505183727 21 45 0.0 1.6 0.00 0.00 0.00 70 1015.1
20260505182726 21 150 0.0 3.2 0.00 0.00 0.00 70 1015.1
20260505181725 21 85 1.6 1.6 0.00 0.00 0.00 70 1015.2
20260505180724 21 110 0.0 0.0 0.00 0.00 0.00 70 1015.3
20260505175723 21 226 0.0 3.2 0.00 0.00 0.00 70 1015.3
20260505174722 21 45 0.0 3.2 0.00 0.00 0.00 70 1015.3
20260505173721 20 45 0.0 0.0 0.00 0.00 0.00 70 1015.4
20260505171719 20 45 0.0 0.0 0.00 0.00 0.00 70 1015.4
20260505170718 20 90 0.0 0.0 0.00 0.00 0.00 70 1015.2
20260505165717 20 313 0.0 0.0 0.00 0.00 0.00 70 1015.1
20260505164716 20 135 0.0 1.6 0.00 0.00 0.00 70 1015.2
20260505163715 21 90 0.0 0.0 0.00 0.00 0.00 70 1015.4
20260505162714 21 135 0.0 0.0 0.00 0.00 0.00 70 1015.6
20260505161713 21 58 0.0 0.0 0.00 0.00 0.00 70 1015.8
20260505160711 21 45 0.0 0.0 0.00 0.00 0.00 70 1015.9
20260505152707 21 64 0.0 0.0 0.00 0.00 0.00 70 1016.1
20260505151706 21 135 0.0 1.6 0.00 0.00 0.00 70 1016.1
20260505150705 21 90 0.0 0.0 0.00 0.00 0.00 70 1016.2
20260505124650 22 45 0.0 1.6 0.00 0.00 0.00 70 1016.4
20260505123649 22 135 0.0 3.2 0.00 0.00 0.00 70 1016.4
20260505122648 23 116 0.0 0.0 0.00 0.00 0.00 70 1016.4
20260505121647 23 306 0.0 3.2 0.00 0.00 0.00 70 1016.7
20260505120646 22 77 0.0 3.2 0.00 0.00 0.00 70 1016.7
20260505115645 22 63 3.2 4.8 0.00 0.00 0.00 70 1016.4
20260505114644 23 90 0.0 0.0 0.00 0.00 0.00 70 1016.7
20260505113643 23 132 0.0 3.2 0.00 0.00 0.00 70 1016.8
20260505112642 23 315 0.0 0.0 0.00 0.00 0.00 70 1016.7
20260505111641 23 90 0.0 0.0 0.00 0.00 0.00 70 1016.4
20260505110640 23 154 0.0 0.0 0.00 0.00 0.00 70 1016.4
20260505101634 23 157 0.0 4.8 0.00 0.00 0.00 70 1016.2
20260505100633 23 138 0.0 4.8 0.00 0.00 0.00 70 1016.1
20260505095632 23 51 1.6 6.4 0.00 0.00 0.00 70 1016.1
20260505094631 24 55 4.8 6.4 0.00 0.00 0.00 70 1016.1
20260505093630 24 96 1.6 6.4 0.00 0.00 0.00 70 1015.7
20260505092629 24 34 0.0 3.2 0.00 0.00 0.00 70 1015.7
20260505091628 24 87 3.2 6.4 0.00 0.00 0.00 70 1015.6
20260505090627 24 64 1.6 4.8 0.00 0.00 0.00 70 1015.3
20260505085626 24 20 6.4 6.4 0.00 0.00 0.00 70 1015.3
20260505084625 24 70 3.2 6.4 0.00 0.00 0.00 70 1015.5
20260505082623 24 45 0.0 4.8 0.00 0.00 0.00 70 1015.0
20260505081622 24 75 0.0 3.2 0.00 0.00 0.00 70 1015.0
20260505080620 25 65 1.6 3.2 0.00 0.00 0.00 70 1014.8
20260505075619 25 46 0.0 3.2 0.00 0.00 0.00 70 1014.7
20260505074618 25 75 3.2 3.2 0.00 0.00 0.00 70 1014.7
20260505073617 25 45 0.0 1.6 0.00 0.00 0.00 70 1014.7
20260505072616 25 79 0.0 0.0 0.00 0.00 0.00 70 1014.8
20260505071615 25 101 0.0 1.6 0.00 0.00 0.00 70 1014.8
20260505070614 25 45 0.0 6.4 0.00 0.00 0.00 70 1014.6
20260505065614 26 51 0.0 4.8 0.00 0.00 0.00 70 1014.5
20260505064612 26 49 3.2 4.8 0.00 0.00 0.00 70 1014.3
20260505063611 26 21 3.2 4.8 0.00 0.00 0.00 70 1014.1
20260505062610 26 56 4.8 6.4 0.00 0.00 0.00 70 1013.9
20260505061609 26 54 3.2 6.4 0.00 0.00 0.00 70 1013.8
20260505060608 27 29 4.8 6.4 0.00 0.00 0.00 70 1013.7
20260505055607 27 47 3.2 6.4 0.00 0.00 0.00 70 1013.7
20260505054606 27 71 0.0 8.0 0.00 0.00 0.00 70 1013.7
20260505053605 27 25 4.8 6.4 0.00 0.00 0.00 70 1013.6
20260505052603 27 53 1.6 9.7 0.00 0.00 0.00 70 1013.7
20260505052222 27 36 9.7 9.7 0.00 0.00 0.00 70 1013.5
20260505051400 28 62 1.6 8.0 0.00 0.00 0.00 70 1013.6
20260505050359 28 56 3.2 6.4 0.00 0.00 0.00 70 1013.7
20260505041354 29 74 0.0 3.2 0.00 0.00 0.00 70 1013.8
20260505040353 29 46 0.0 3.2 0.00 0.00 0.00 70 1013.8
20260505035352 30 171 0.0 3.2 0.00 0.00 0.00 70 1013.8
20260505034351 30 133 3.2 4.8 0.00 0.00 0.00 70 1014.0
20260505033350 30 131 0.0 3.2 0.00 0.00 0.00 70 1013.7
20260505032348 30 184 0.0 3.2 0.00 0.00 0.00 70 1013.9
20260505031348 30 275 0.0 6.4 0.00 0.00 0.00 70 1014.0
20260505025345 30 243 3.2 6.4 0.00 0.00 0.00 70 1014.3
20260505023344 28 349 0.0 8.0 0.00 0.00 0.00 70 1014.4
20260505023037 28 136 8.0 8.0 0.00 0.00 0.00 70 1014.5
20260505022457 28 115 0.0 6.4 0.00 0.00 0.00 70 1014.6
20260505020455 28 175 3.2 3.2 0.00 0.00 0.00 70 1014.8
20260505015454 28 65 0.0 6.4 0.00 0.00 0.00 70 1015.3
20260505014453 28 99 1.6 6.4 0.00 0.00 0.00 70 1015.4